Content
SEND FEEDBACK

Daily
Averages
Monthly
Summary
United States of America

WRIGHTSBORO, NORTH CAROLINA


Home > North America > United States > North Carolina
Elevation: 30 feet     Latitude: 34 18N     Longitude: 077 54W

WEATHER
 
SELECT A DAY
Number of Records: 208,677;   Date Range: 1/1/95 - 7/22/14
 
SHARE

PRINT THIS DATA

[ ← Previous Day ]
WEATHER ALMANAC - MARCH 24, 2014
[ Next Day → ]
[ °C ]   °F
Weather ElementAverageHighLow
Temperature43.1 °F51.1 °F (1:53 pm)36 °F (6:53 am)
Dewpoint29.8 °F37.9 °F (12:53 am)21.9 °F (1:53 pm)
Humidity63.1 %93 % (6:53 am)32 % (1:53 pm)
Barometer30.19 in30.27 in (9:53 am)30.12 in (12:53 am)
Wind Speed8.5 mph18.4 mph (8:53 am)
Wind Gust23 mph (1:38 am)
Weather ElementAverage
Visibility8.3 mi
Wind DirectionENE (57.4 °)

Weather ElementTotal
Precipitation---
Heating Degree Days21.5 (Base 65)
Averaged from 27 records on March 24, 2014
WEATHER CONDITIONS BREAKOUT
WIND DIRECTION BREAKOUT
WEATHER BY HOUR - MARCH 24, 2014
[ °C ]   °F
Local TimeTemperatureDewpointHumidityBarometerVisibilityWind DirectionWind SpeedGust SpeedPrecipitationEventsConditions
12:53 AM45.0 °F37.9 °F76 %30.12 in8.0 miNorth (10°)13.8 mphOvercast
1:38 AM44.1 °F36.0 °F73 %30.13 in10.0 miNNE (20°)17.3 mph23.0 mphMostly Cloudy
1:53 AM43.0 °F36.0 °F76 %30.13 in9.0 miNorth (10°)12.7 mphScattered Clouds
2:53 AM42.1 °F36.0 °F79 %30.14 in8.0 miNorth (10°)10.4 mphClear
3:53 AM39.9 °F35.1 °F83 %30.15 in7.0 miNorth (360°)9.2 mphClear
4:53 AM39.0 °F35.1 °F86 %30.16 in6.0 miNorth (10°)8.1 mphClear
5:53 AM37.9 °F34.0 °F86 %30.20 in5.0 miNorth (10°)6.9 mphClear
6:53 AM36.0 °F34.0 °F93 %30.22 in4.0 miNNE (20°)4.6 mphClear
7:20 AM37.0 °F34.0 °F89 %30.23 in2.5 miNorth (10°)5.8 mphClear
7:53 AM37.9 °F35.1 °F89 %30.24 in2.5 miNNE (20°)6.9 mphClear
8:02 AM39.0 °F35.1 °F86 %30.24 in3.0 miNNE (20°)9.2 mphClear
8:53 AM39.9 °F32.0 °F73 %30.26 in8.0 miNE (40°)18.4 mphClear
9:53 AM43.0 °F23.0 °F45 %30.27 in10.0 miNE (40°)15.0 mphClear
10:53 AM45.0 °F24.1 °F44 %30.27 in10.0 miENE (70°)11.5 mphClear
11:53 AM48.9 °F24.1 °F38 %30.25 in10.0 miNE (40°)10.4 mph20.7 mphClear
12:53 PM48.9 °F23.0 °F36 %30.24 in10.0 miVariable5.8 mphClear
1:53 PM51.1 °F21.9 °F32 %30.21 in10.0 miVariable3.5 mphClear
2:53 PM50.0 °F24.1 °F36 %30.19 in10.0 miSSE (150°)9.2 mph16.1 mphClear
3:53 PM50.0 °F25.0 °F38 %30.17 in10.0 miESE (120°)10.4 mphClear
4:53 PM48.9 °F24.1 °F38 %30.16 in10.0 miESE (120°)11.5 mphClear
5:53 PM48.9 °F24.1 °F38 %30.15 in10.0 miEast (100°)8.1 mphClear
6:53 PM46.9 °F23.0 °F39 %30.15 in10.0 miESE (120°)5.8 mphClear
7:53 PM45.0 °F26.1 °F48 %30.15 in10.0 miSE (130°)3.5 mphClear
8:53 PM41.0 °F28.9 °F62 %30.15 in10.0 miNNE (30°)4.6 mphClear
9:53 PM39.0 °F30.9 °F73 %30.16 in10.0 miNNE (30°)3.5 mphClear
10:53 PM37.9 °F30.9 °F76 %30.15 in10.0 miCalmClear
11:53 PM39.0 °F30.9 °F73 %30.13 in10.0 miENE (60°)3.5 mphClear
Hourly data recorded from KILM, located miles away from Wrightsboro, North Carolina







STORIES FROM OUR PARTNERS